Regional Weather Roundup
Issued by NWS

Home | Current Version | Previous Version | Text Only | Print | Product List | Glossary Off
Versions: 1 2 3 4 5 6 7 8 9 10 11 12 13 14 15 16 17 18 19 20 21 22 23 24 25 26 27 28 29 30 31 32 33 34 35 36 37 38 39 40 41 42 43 44 45 46 47 48 49 50

000
ASUS43 KLSX 011507
RWRMO

WEATHER SUMMARY FOR MISSOURI
NATIONAL WEATHER SERVICE SPRINGFIELD MO
1000 AM CDT WED OCT 01 2014

NOTE: "FAIR" INDICATES FEW OR NO CLOUDS BELOW 12,000 FEET WITH NO
       SIGNIFICANT WEATHER AND/OR OBSTRUCTIONS TO VISIBILITY.
       CURRENT SKY AND/OR WEATHER CONDITIONS ARE NOT AVAILABLE FOR
       CHILLICOTHE AND FARMINGTON.

MOZ001>031-035>038-043-044-053-054-011600-
...NORTHERN AND WESTERN MISSOURI...

CITY           SKY/WX    TMP DP  RH WIND       PRES   REMARKS
KANSAS CTY INT CLOUDY    66  66 100 SE10      29.78F
KANSAS C DTWN  TSTM      71  64  78 S5        29.78S
LEE`S SUMMIT   PTSUNNY   70  62  76 S5        29.80S
ST JOSEPH      CLOUDY    67  64  90 SE8       29.78S
CHILLICOTHE      N/A     64  61  90 SE9       29.83S
KIRKSVILLE     LGT RAIN  61  60  97 E12       29.86F FOG

$$
MOZ066>068-077>081-088>096-101>105-011600-
...SOUTHWEST MISSOURI...

CITY           SKY/WX    TMP DP  RH WIND       PRES   REMARKS
SPRINGFIELD    SUNNY     73  59  61 S16G23    29.85F
JOPLIN         CLOUDY    76  65  68 S18       29.82F

$$
MOZ032>034-039>042-045>050-055>058-069>072-011600-
...CENTRAL MISSOURI...

CITY           SKY/WX    TMP DP  RH WIND       PRES   REMARKS
COLUMBIA       PTSUNNY   74  58  57 S13G24    29.85S
JEFFERSON CITY MOSUNNY   74  57  55 SE6       29.85S
ROLLA          SUNNY     76  57  51 S14       29.87S
SEDALIA        PTSUNNY   73  63  70 S8        29.82S
WHITEMAN AFB   MOSUNNY   69  63  81 E3        29.81R
OSAGE BEACH    SUNNY     73  57  56 S8        29.85F

$$
MOZ051-052-059>065-011600-
...EAST CENTRAL MISSOURI...

CITY           SKY/WX    TMP DP  RH WIND       PRES   REMARKS
ST LOUIS INTL  MOSUNNY   73  59  61 SE13      29.92S
SPIRIT OF STL  MOSUNNY   72  59  63 VRB5      29.89F

$$
MOZ072>076-082>087-097>100-106>115-011600-
...SOUTH CENTRAL AND SOUTHEAST MISSOURI...

CITY           SKY/WX    TMP DP  RH WIND       PRES   REMARKS
CAPE GIRARDEAU SUNNY     73  60  63 SE6       29.94S
FARMINGTON     SUNNY     72  59  64 S7        29.95S
POPLAR BLUFF   CLOUDY    71  60  68 SE3       29.92S
WEST PLAINS    MOSUNNY   75  60  59 S7        29.93R

$$



USA.gov is the U.S. government's official web portal to all federal, state and local government web resources and services.